#timestamp,LO_Frequency,Hit,StdDev 
1607479215.1,286047003.5,N
1607479216.0,286047003.5,N
1607479235.8,286047001.7,N
1607479255.6,286047001.4,N
1607479275.5,286047001.7,N
1607479295.3,286047001.8,N
1607479315.1,286047002.7,N
1607479335.9,286047005.8,Y
1607479355.7,286047004.0,P
1607479375.6,286047001.4,N
1607479395.4,286047006.0,P
1607479415.2,286047004.5,N
1607479435.1,286047005.7,N
1607479436.0,286047005.7,N
1607479455.8,286047005.5,N
1607479475.7,286047005.4,N
1607479495.5,286047006.0,Y
1607479515.3,286046998.6,P
1607479535.2,286047001.1,N
1607479555.0,286047000.6,N
1607479555.9,286047000.6,N
1607479575.8,286046998.4,N
1607479595.6,286046999.2,N
1607479615.4,286046999.2,N
1607479635.3,286046995.0,N
1607479655.1,286046997.3,N
1607479675.8,286046995.4,N
1607479695.7,286047000.5,N
1607479715.5,286046999.2,N
1607479735.3,286046999.1,N
1607479755.2,286046997.0,N
1607479775.0,286046999.6,N
1607479775.9,286046999.6,N
1607479795.8,286046996.6,N
1607479815.6,286046999.5,N
1607479835.4,286046996.5,N
1607479855.3,286046996.7,N
1607479875.1,286046998.2,N
1607479895.9,286046999.5,N
1607479915.7,286046998.8,N
1607479935.5,286046998.2,N
1607479955.4,286046998.1,N
1607479975.2,286047001.2,N
1607479995.0,286046998.1,N
1607479995.9,286046998.1,N
1607480015.8,286046999.5,N
1607480035.6,286046996.9,N
1607480055.5,286046999.3,N
1607480075.3,286046998.2,N
1607480095.1,286046998.9,N
1607480115.9,286046998.7,N
1607480135.7,286046999.6,N
1607480155.5,286046999.2,N
1607480175.4,286046997.1,N
1607480195.2,286046999.3,N
1607480215.1,286046998.5,N
1607480216.0,286046998.5,N
1607480235.8,286046997.0,N
1607480255.6,286046999.0,N
1607480275.5,286047000.1,N
1607480295.3,286047000.9,N
1607480315.2,286047002.1,N
1607480335.9,286047002.8,N
1607480355.7,286047002.6,N
1607480375.6,286047000.3,N
1607480395.4,286046998.1,N
1607480415.2,286046998.4,N
1607480435.1,286046998.4,N
1607480436.0,286046998.4,N
1607480455.8,286046996.9,N
1607480475.7,286046999.6,N
1607480495.5,286046996.6,N
1607480515.3,286046999.4,N
1607480535.2,286046999.4,N
1607480555.0,286046998.6,N
1607480555.9,286046998.6,N
1607480575.7,286046999.3,N
1607480595.6,286046998.8,N
1607480615.4,286047000.5,N
1607480635.3,286047000.6,N
1607480655.1,286047000.5,N
1607480656.0,286047000.5,N
1607480675.8,286046998.2,N
1607480695.7,286047000.7,N
1607480715.5,286046998.2,N
1607480735.3,286047000.7,N
1607480755.2,286046999.7,N
1607480775.0,286047002.6,N
1607480775.9,286047002.6,N
1607480795.8,286047002.3,N
1607480815.6,286047002.4,N
1607480835.4,286046999.7,N
1607480855.3,286047005.6,Y
1607480875.1,286047001.7,P
1607480895.9,286047001.6,N
1607480915.7,286047001.9,N
1607480935.5,286047004.2,Y
1607480955.4,286046999.8,P
1607480975.2,286046999.7,N
1607480995.0,286047000.3,N
1607480995.9,286047000.3,N
1607481015.8,286047000.3,N
1607481035.6,286047001.0,N
1607481055.5,286047001.4,N
1607481075.3,286046999.7,N
1607481095.1,286047001.0,N
1607481115.9,286047000.7,N
1607481135.7,286047001.1,N
1607481155.5,286047000.1,N
1607481175.4,286047000.7,N
1607481195.2,286047001.1,N
1607481215.0,286047000.4,N
1607481216.0,286047000.4,N
1607481235.8,286047000.6,N
1607481255.6,286047000.4,N
1607481275.5,286047000.9,N
1607481295.3,286047001.0,N
1607481315.1,286046998.2,Y
1607481335.9,286046999.3,P
1607481355.7,286046998.3,N
1607481375.6,286046998.5,N
1607481395.4,286046998.2,N
1607481415.2,286046999.0,N
1607481435.1,286046997.0,Y
1607481436.0,286046997.0,P
1607481455.8,286046998.7,N
1607481475.6,286046999.2,N
1607481495.5,286046999.5,N
1607481515.3,286046998.7,N
1607481535.2,286047001.2,N
1607481555.9,286046998.9,N
1607481575.7,286046998.2,N
1607481595.6,286046998.3,N
1607481615.4,286046998.2,N
1607481635.2,286047000.7,N
1607481655.1,286047000.8,N
1607481656.0,286047000.8,N
1607481675.8,286047000.1,N
1607481695.7,286047000.0,N
1607481715.5,286046999.7,N
1607481735.3,286047000.1,N
1607481755.2,286047000.2,N
1607481775.0,286047000.5,N
1607481775.9,286047000.5,N
1607481795.7,286047000.4,N
1607481815.6,286047000.7,N
1607481835.4,286046998.1,N
1607481855.3,286047002.7,N
1607481875.1,286047002.5,N
1607481876.0,286047002.5,N
1607481895.8,286046999.9,N
1607481915.7,286047001.4,N
1607481935.5,286046999.8,N
1607481955.3,286046999.9,N
1607481975.2,286047004.3,Y
1607481995.0,286047001.8,P
1607481995.9,286047001.8,N
1607482015.8,286047000.3,N
1607482035.6,286046999.7,N
1607482055.4,286047002.5,N
1607482075.3,286047000.4,N
1607482095.1,286046999.9,N
1607482115.8,286047002.8,N
1607482135.7,286047002.5,N
1607482155.5,286047002.8,N
1607482175.4,286047000.2,N
1607482195.2,286046999.7,N
1607482215.0,286047000.1,N
1607482215.9,286047000.1,N
1607482235.8,286047002.8,N
1607482255.6,286047004.3,Y
1607482275.5,286047002.6,P
1607482295.3,286046999.9,N
1607482315.1,286047003.2,N
1607482335.9,286047002.7,N
1607482355.7,286046999.7,N
1607482375.5,286047000.9,N
1607482395.4,286046999.7,N
1607482415.2,286047002.3,N
1607482435.0,286047002.4,N
1607482436.0,286047002.4,N
1607482455.8,286047000.2,N
1607482475.6,286047002.7,N
1607482495.5,286047001.1,N
1607482515.3,286047001.0,N
1607482535.1,286047000.3,N
1607482555.9,286047000.3,N
1607482575.7,286047000.1,N
1607482595.5,286047000.2,N
1607482615.4,286047001.2,N
1607482635.2,286047000.0,N
1607482655.1,286047002.3,N
1607482656.0,286047002.3,N
1607482675.8,286047002.8,N
1607482695.6,286047004.1,Y
1607482715.5,286047003.8,P
1607482735.3,286047002.5,N
1607482755.2,286047000.3,N
1607482775.9,286047000.2,N
1607482795.7,286047001.0,N
